Find Starlink 5632

NORAD ID: 55400 Int'l Des: 2023-014 Owner: SPXS Country: US Constellation: starlink operational
LEOCIRCULAR

当前视图

正在加载3D地球...

About Starlink 5632

Starlink 5632 (NORAD 55400) is a starlink constellation satellite (v1.5) launched Jan 31, 2023 by SPXS of US. It operates in LEO, CIRCULAR orbit with a mass of 305.00 kg.

即将过境

Passes for default location (London). Set your location on the main map for personalized predictions.

高度历史

Loading altitude history...

两行轨道根数

1 55400U 23014K 26263.41883962 -.00000052 00000-0 34828-5 0 9992
2 55400 69.9968 293.4856 0005330 286.2964 73.7609 14.98331139201229
Epoch: Sep 20, 2026 • Age: 14 hours

当前状态

高度 580.9 km
远地点 / 近地点 N/A
速度 7.57 km/s
星下点 -27.55°S, 126.03°E
发射日期 Jan 31, 2023
运行时间 3.6 years
类型 internet

技术详情

分类 Payload
质量 305.00 kg
干质量 290.00 kg
长度 0.20 m
跨度 9.00 m
形状 ? Box + pan
制造商 SPXS
平台类型 Starlink
阶段状态 In Orbit
所有者/国家 SPXS/US

Most Searched